Regional Weather Roundup
Issued by NWS

Home | Current Version | Previous Version | Graphics & Text | Print | Product List | Glossary On
Versions: 1 2 3 4 5 6 7 8 9 10 11 12 13 14 15 16 17 18 19 20 21 22 23 24 25 26 27
000
ASUS45 KTFX 222010
RWRMT
MONTANA REGIONAL WEATHER ROUNDUP
NATIONAL WEATHER SERVICE GREAT FALLS MT
100 PM MST WED FEB 22 2017

NOTE: "FAIR" INDICATES FEW OR NO CLOUDS BELOW 12000 FEET WITH NO
SIGNIFICANT WEATHER AND/OR OBSTRUCTIONS TO VISIBILITY.

MTZ001>007-043-222100-
WEST OF THE DIVIDE

CITY           SKY/WX    TMP DP  RH WIND       PRES   REMARKS
KALISPELL      PTSUNNY   37  27  67 CALM      29.95F
MISSOULA       CLOUDY    36  30  79 W7        29.95F WCI  30
BUTTE          CLOUDY    32  19  58 CALM      29.86F
MULLAN PASS    SNOW      27  24  89 CALM      29.87F VSB 1/2
ANACONDA         N/A     36  23  60 N7        29.87F WCI  30
DEER LODGE       N/A     32  28  86 S3        29.92F VSB 3/4
EUREKA           N/A     30  30 100 NE5       29.99F
HAMILTON         N/A     39  23  52 W6        29.91F
PLAINS           N/A     40  31  70 CALM      29.98F
RONAN            N/A     38  28  67 SW1       30.00F
$$

MTZ008-052>055-222100-
SOUTHWEST MONTANA

CITY           SKY/WX    TMP DP  RH WIND       PRES   REMARKS
BOZEMAN        MOSUNNY   38  26  62 CALM      29.88F
DILLON         CLOUDY    37  16  42 S10       29.84F WCI  30
W YELLOWSTONE  CLOUDY    27  19  74 SW15G22   29.86F WCI  15
ENNIS          PTSUNNY   32  23  69 SW10      29.91F WCI  24
THREE FORKS      N/A     39  39 100 MISG      29.89F
TWIN BRIDGES     N/A     37  17  44 S2        29.87F
$$

MTZ009-010-012-014-046-048-049-054-222100-
EAST SLOPES AND CENTRAL MONTANA

CITY           SKY/WX    TMP DP  RH WIND       PRES   REMARKS
CUT BANK       CLOUDY    28  25  88 N17       29.92R FOG     WCI  16
GREAT FALLS    CLOUDY    37  27  67 N8        29.89F WCI  31
HELENA         CLOUDY    41  22  46 W9        29.89F
AUGUSTA        PTSUNNY   37  20  50 N9        29.87F WCI  30
CHOTEAU          N/A     36  27  69 N14       29.91F WCI  27
CONRAD           N/A     33  31  93 NW7       29.94S WCI  27
RAYNESFORD     PTSUNNY   33  28  80 SW8       29.88F WCI  27
$$

MTZ011-013-016-021-045-047-050-051-222100-
NORTH CENTRAL MONTANA

CITY           SKY/WX    TMP DP  RH WIND       PRES   REMARKS
HAVRE          CLOUDY    36  32  85 E12       29.92F WCI  28
LEWISTOWN      LGT SNOW  32  30  92 NW10      29.87F FOG     WCI  24
N BAR RANCH    CLOUDY    34  30  86 E5        29.88F
CHINOOK          N/A     34  28  80 E8        29.95S WCI  27
FORT BENTON      N/A     37  30  75 N8          N/A  WCI  31
GEYSER         PTSUNNY   36  30  79 W13       29.87F WCI  27
JUDITH GAP     LGT SNOW  30  28  94 N15       29.85F VSB 1   WCI  19
STANFORD       PTSUNNY   34  30  86 NW13      29.86F WCI  25
$$

MTZ017>020-022>027-061-062-222100-
NORTHEAST MONTANA

CITY           SKY/WX    TMP DP  RH WIND       PRES   REMARKS
GLASGOW        CLOUDY    31  26  82 MISG      29.95S
JORDAN           N/A     33  29  85 N5        29.92F
SIDNEY         CLOUDY    31  28  89 N9        29.93S WCI  23
WOLF POINT     PTSUNNY   36  22  56 NE7       29.96S WCI  30
PLENTYWOOD       N/A     32  23  69 N7        29.93S WCI  26
POPLAR           N/A     30  25  80 N8        29.95S WCI  23
$$

MTZ028>42-056>058-222100-
SOUTHCENTRAL AND SOUTHEAST MONTANA

CITY           SKY/WX    TMP DP  RH WIND       PRES   REMARKS
BAKER          LGT SNOW  31  31 100 N12       29.88R FOG     WCI  22
BILLINGS       LGTSLEET  34  32  92 NW8       29.87F FOG     WCI  27
LIVINGSTON     CLOUDY    37  25  61 NW9       29.86F WCI  30
MILES CITY     LGT SNOW  35  34  96 N8        29.90F FOG     WCI  29
BIG TIMBER     SUNNY     39  19  45 W18       29.86F WCI  30
EKALAKA          N/A     30  27  89 NW10      29.84R WCI  21
FORSYTH          N/A     36  30  80 NW3       29.91F
LAUREL           N/A     42  25  51 NW7       29.87F
$$

REGIONAL REPORTS...DAKOTAS

CITY           SKY/WX    TMP DP  RH WIND       PRES   REMARKS
WILLISTON      CLOUDY    33  26  75 NE9       29.92S WCI  25
MINOT          CLOUDY    33  28  81 N13       29.87R WCI  24
DICKINSON      CLOUDY    30  26  85 N12       29.84R WCI  20
BEACH            N/A    N/A N/A N/A MISG        N/A
CROSBY         PTSUNNY   32  27  80 N8        29.94S WCI  25
TIOGA          PTSUNNY   30  27  86 NE12      29.91R WCI  21
WATFORD CITY   CLOUDY    30  27  86 NE8       29.91S WCI  23
BISMARCK       LGT SNOW  35  32  88 N13       29.83R FOG     WCI  26
GRAND FORKS    CLOUDY    35  24  64 N18       29.78S WCI  24
FARGO          LGT SNOW  34  33  96 N17       29.72R FOG     WCI  23
BUFFALO SD       N/A     35  31  85 N17       29.76R WCI  25
RAPID CITY     SUNNY     57  18  21 NW25G32   29.74F
$$

REGIONAL REPORTS...WYOMING/IDAHO/WASHINGTON

CITY           SKY/WX    TMP DP  RH WIND       PRES   REMARKS
GILLETTE         N/A     45  26  47 NW22      29.81F
SHERIDAN       CLOUDY    41  28  60 NW10      29.85F
BUFFALO WY     CLOUDY    39  26  59 N20       29.83F WCI  29
CODY           CLOUDY    38  21  50 NE8       29.84F
YELLOWSTONE LA   N/A     25  14  63 VRB7      29.84F WCI  17
IDAHO FALLS    MOSUNNY   36  27  69 W12       29.91F WCI  28
SALMON         CLOUDY    37  27  65 N7        29.88F
BOISE          CLOUDY    39  27  62 W9        29.94F
SPOKANE        CLOUDY    32  28  85 CALM      30.03F
$$

REGIONAL REPORTS...ALBERTA

CITY           SKY/WX    TMP DP  RH WIND       PRES   REMARKS
EDMONTON       CLOUDY    27  18  69 NW9       30.01S WCI  17
CALGARY        LGT SNOW  28  16  59 N7        29.96R WCI  21
LETHBRIDGE     FLURRIES  32  30  93 N8        29.95S WCI  25
MEDICINE HAT   FLURRIES  37  28  70 W3        29.93F
WATERTON GATE    N/A     28  23  80 NE5         N/A
CARDSTON         N/A     30  25  80 NW6         N/A  WCI  24
MILK RIVER       N/A     30  28  93 NW14        N/A  WCI  20
$$

REGIONAL REPORTS...SASKATCHEWAN

CITY           SKY/WX    TMP DP  RH WIND       PRES   REMARKS
SWIFT CURRENT  CLOUDY    36  27  69 W8        29.91S WCI  29
REGINA         PTSUNNY   36  27  69 NW13      29.91F WCI  27
SASKATOON      FLURRIES  28  25  86 NE9       29.97S WCI  20
CYPRESS HILLS    N/A     30  19  64 S5          N/A
VAL MARIE        N/A     36  25  64 E5          N/A
ROCKGLEN         N/A     30  21  69 N3          N/A
ASSINIBOIA       N/A     28  21  74 NW6         N/A  WCI  22
$$




USA.gov is the U.S. government's official web portal to all federal, state and local government web resources and services.